Timeline UpdatesTrip UpdatesNews PostsPvt Posts♥♥Travel TipsAdmin PostsConv PostsFollowed PostsChat RequestsBlog PostsPNR Posts

Disclaimer
Search
 
 
Fri Oct 24, 2014 01:26:35 ISTHomeTrainsΣChainsAtlasPNRForumGalleryNewsFAQTripsMembersLoginFeedback
No Recent News for this Train
Other Trains in the News **new
Latest...
Diverted via Asansol-Jhajha-Patna-Mughalsarai from 15/10/14-20/10/14 #1245502
Wed Oct 15, 2014 (09:40PM)
⇐ Return Journey: Train# 12321

12322/Mumbai CST - Howrah Mail (via Allahabad)

Time-Table HAS CHANGED.
Oct 15 (9:40PM)
Change Departure Station:
Change Arrival Station:
Post a Train Travel TipPost a Train Travel Tip **new
Post a Comment/Question/Picture/VideoPost a Comment/Question/Picture/Video
Pantry/Catering
✓ Pantry Car Avbl
✓ Catering Avbl
Loco/Rake Reversals
ALD/Allahabad Junction (10);
RSA - Rake Sharing
No RSA.
Rake/Coach Composition
LOCO-SLR-GEN-GEN-SE1-S1-S2-S3-S4-S5-S6-S7-S8-S9-S10-S11-PC-B1-B2-B3-A1-HA1-GEN-SLR.; Entry-801279
Loco
CSTM-IGP: KYN WCAM-3 IGP-ET: BSL/ET WAP-4 ET-ALD: ET WDP-4/4B ALD-HWH: HWH / MGS...
Read more...
WAP-4.
News    PNR    Forum    Time-Table    Availability    Fare Chart    Map    Arr/Dep History    Trips    Gallery    ΣChains    X/O    Timeline    
Travel Time: 28h 50m    35 halts    Distance: 1611 km    Avg Speed: 55 km/hr
Type: SuperFast
Zone: ER/Eastern
Departs @ 06:55 (Avg 1h 6m late)
Platform# ???
SMTWTFS
Khandwa Junction/KNW 
Arrives @ 11:45 +1 night (Avg 2h 47m late)
Platform# 9
SMTWTFS
Kolkata Howrah Junction/HWH 

35 halts. 253 intermediate Stations between Khandwa Junction and Kolkata Howrah Junction

Show ALL intermediate Stations  Show Old Time-Table

#TrkCodeStation NameX/OArrivesAvgDepartsAvgHaltPFDay#KmSpeedElevZoneAddress
1/==/CSTMMumbai CST (18)  -21:25 21:30+5481-565.94010mCRMumbai 400001, Maharashtra
2/==/DRMumbai Dadar Central (8)  21:40 21:43+1:0221:45+595 2m51-557.2597mCRMumbai 400014, Maharashtra
3/==/KYNKalyan Junction (8)  22:25 22:30+1:0922:30 22:35+1:115m41-512.85910mCRKalyan 421301, Maharashtra
4/==/KSRAKasara (4)  23:38 23:43+1:1023:40 23:45+1:162m11-445.326290mCRDist. Thane 421602, Maharashtra
5/==/IGPIgatpuri (4)X  00:15 00:18+1:0500:20+1:185 2m22-431.071589mCRIgatpuri 422403, Maharashtra
6/==/DVLDevlali (3)X  00:58+1:2601:00+1:272m12-386.026561mCRDist. Nashik 422401, Maharashtra
7/==/NKNasik Road (3)X  01:10 01:13+1:2401:15+1:245 2m22-380.379563mCRNashik 422101, Maharashtra
8/==/MMRManmad Junction (6)X  02:10+1:2102:13+1:223m22-307.590580mCRManmad 423104, Maharashtra
9/==/CSNChalisgaon Junction (3)X  02:58+1:2403:00+1:242m--2-240.096352mCRChalisgaon 424101, Maharashtra
10/==/JLJalgaon Junction (4)  03:58+1:3204:00+1:332m32-147.558213mCRJalgaon 425001, Maharashtra
11/==/BSLBhusaval Junction (8)  04:25+1:3404:35+1:3810m32-123.376208mCRBhusaval 425201, Maharashtra
12/==/BAUBurhanpur (2)X  05:18+1:3605:20+1:362m22-68.987269mCRBurhanpur, Madhya Pradesh
13/==/NPNRNepanagar (2)XO  05:38+1:3705:40+1:372m--2-42.637289mCRState Highway 27, Madhya Pradesh
14/==/KNWKhandwa Junction (5)»  07:00 06:50+1:0507:05 06:55+1:065m--20.095310mCRKhandwa, Madhya Pradesh
15/==/HDHarda (3)XO  08:03+1:1908:05+1:192m22107.654289mWCRHarda, Madhya Pradesh
16/==/ETItarsi Junction (7)X  09:30+5609:40+1:0710m12183.479329mWCRItarsi 461111, Madhya Pradesh
17|==|PPIPipariya (3)X  10:31+1:3410:33+1:352m12250.793338mWCRPiparia, Madhya Pradesh
18|==|GARGadarwara (2)X  11:05+1:3911:07+1:392m12300.086352mWCRNarsinghpur, Madhya Pradesh
19|==|KYKareli (2)X  11:27+1:4411:29 11:30+1:432 3m12328.563361mWCRKareli, Madhya Pradesh
20|==|NUNarsinghpur (2)  11:45+1:4311:47+1:432m12344.475365mWCRNarsimhapur, Madhya Pradesh
21|==|SRIDShridham (3)X  12:12+1:4312:14+1:432m22375.557373mWCRShridham, Madhya Pradesh
22|==|JBPJabalpur Junction (4)  13:10+1:2713:20+1:3010m42428.478416mWCRJabalpur, Madhya Pradesh
23|==%KTEKatni Junction (6)  14:30+1:4014:35+1:405m42519.384387mWCRKatni, Madhya Pradesh
24%==%MYRMaihar (3)X  15:25 15:20+1:4415:27 15:22+1:462m12582.244353mWCRMaihar Railway Station, Madhya Pradesh
25%==%STASatna Junction (3)X  16:10+1:2616:20+1:2810m22617.644322mWCRSatna, Madhya Pradesh
26%==%MKPManikpur Junction (4)X  18:07+1:0518:12+1:075m22695.385250mNCRManikpur, Uttar Pradesh
27%==%SRJShankargarh (3)XO  18:51+1:0918:53+1:102m22750.333132mNCRShankargarh, Uttar Pradesh
28%==/NYNNaini Junction (4) new halt!!X  20:01-20:03-2m42787.71998mNCRAllahabad, Uttar Pradesh
29/==/ALDAllahabad Junction (10)XO20:25+1:2620:45 20:55+1:5420 30m62794.876100mNCRAllahabad 211003, Uttar Pradesh
30/==/BDLVindhyachal (3)  22:00+2:2322:02+2:262m--2877.12788mNCRMirzapur, Uttar Pradesh
31/==/MZPMirzapur (3)  22:18+2:2622:20+2:282m--2884.47288mNCRMirzapur, Uttar Pradesh
32/==/CARChunar Junction (5)X  22:46+3:0022:48+3:052m32915.72685mNCRChunar Junction, Uttar Pradesh
33/==/MGSMughal Sarai Junction (8)X  00:02+3:1300:12+3:1310m13947.68683mECRDistt: Chandauli Pin 232101, Uttar Pradesh
34/==/BBUBhabua Road (4)  00:50+3:1600:52+3:172m--31002.19580mECR06187-222222, Bihar
35/==/SSMSasaram Junction (4)  01:22+3:2601:24+3:272m331049.762111mECR06184-222051, Bihar
36/==/DOSDehri On Sone (6)XO  01:41+3:2301:43+3:242m431067.377114mECRRohtas(06184-253154), Bihar
37/==/AUBRAnugraha Narayan Road (4)  01:56+3:2901:58+3:302m331084.066104mECR06186-285271, Bihar
38/==/GAYAGaya Junction (9)X  03:00+3:2403:05+3:235m331152.463117mECR0631-2220283, Bihar
39/==/KQRKoderma Junction (7)  04:18+3:2604:20+3:262m--31228.883399mECR06534-222410 Koderma, Jharkhand
40/==/HZDHazaribagh Road (4)X  04:55+3:2604:57+3:272m--31277.152330mECRHazaribagh, Jharkhand
41/==/PNMEParasnath (5)  05:28+3:2105:30+3:232m231304.222282mECRGiridih 06532-233419, Jharkhand
42/==/GMONetaji SC Bose Gomoh Junction (6)X  06:20+2:5006:30+2:5010m231322.251239mECRGomoh, Jharkhand
43/==/DHNDhanbad Junction (9)  07:05+2:5907:15+2:5710m131352.063235mECR2319801. Div. HQ ECR, Jharkhand
44/==/BRRBarakar (2)  07:54+2:5107:56+2:522m231393.054129mERDist. Bardhaman, West Bengal
45/==/ASNAsansol Junction (7)XO  08:15+3:0508:30+3:0115m631410.272113mERDist - Bardhaman, West Bengal
46/==/RNGRaniGanj (4)X  08:45+3:0408:47+3:042m431428.46692mERRaniganj, West Bengal
47/==/DGRDurgapur (5)  09:09+3:1009:13+3:074m431452.79471mERDurgapur, West Bengal
48/==/PANPanagarh (4)X  09:23+2:5509:25+2:542m331468.36170mERKaksa, West Bengal
49/==/BWNBarddhaman Junction (8)  10:12+3:0510:17+3:045m1231516.26434mERDist - Barddhaman, West Bengal
50/==/HWHKolkata Howrah Junction (23)•  11:45+2:47-931610.6-10mERHowrah 711101, West Bengal
Scroll to Top
Scroll to Bottom